Home > Weather > Dindigul > Past weeks

Flag for India Past Weather in Dindigul, Tamil Nadu, India — Yesterday and Last 2 Weeks

Now
79 °F

Fog.


Feels Like: 83 °F
Forecast: 77 / 90 °F
Wind: 7 mph from Northwest

Location: Tiruchchirapalli

Current Time: Jul 25, 2016 at 2:02:52 AM

Latest Report: Jul 25, 2016 at 1:30 AM


Visibility: 3 mi

Pressure: 29.71 "Hg

Humidity: 94%

Dew Point: 77 °F

Location of DindigulLocation

Past Weather in Dindigul — Graph

°F

Dindigul Temperature Yesterday

Maximum temperature yesterday: 97 °F (at 3:30 PM)
Minimum temperature yesterday: 79 °F (at 9:00 PM)
Average temperature yesterday: 86 °F

High & Low Weather Summary for the Past Weeks

 TemperatureHumidityPressure
High100 °F (Jul 13, 2:00 PM)100% (Jul 17, 8:30 PM)29.86 "Hg (Jul 17, 8:30 PM)
Low73 °F (Jul 15, 10:00 PM)29% (Jul 14, 5:30 PM)29.56 "Hg (Jul 14, 4:30 PM)
Average87 °F59%29.72 "Hg
* Reported Jul 10 12:30 AM — Jul 25 12:30 AM, Dindigul, Weather by CustomWeather, © 2016

Note: Actual official high and low records may vary slightly from our data, if they occured in-between our weather recording intervals... More about our weather records

Advertising

Dindigul Weather History for the Previous 24 Hours

Scroll right to see more
 ConditionsComfort  
Time TempWeatherWind HumidityBarometerVisibility
12:30 AM
Mon, Jul 25
79 °FFog.No wind94%29.74 "Hg3 mi
12:00 AM79 °FFog.No wind94%29.74 "Hg3 mi
11:30 PM
Sun, Jul 24
79 °FFog.3 mph94%29.74 "Hg2 mi
11:00 PM79 °FFog.3 mph89%29.74 "Hg2 mi
10:30 PM79 °FFog.5 mph89%29.74 "Hg2 mi
10:00 PM79 °FFog.5 mph89%29.74 "Hg2 mi
9:30 PM79 °FThunderstorms. Partly cloudy.6 mph89%29.74 "Hg2 mi
9:00 PM79 °FThunderstorms. Partly cloudy.6 mph89%29.74 "Hg2 mi
8:30 PM82 °FThunderstorms. Partly cloudy.8 mph74%29.71 "Hg2 mi
8:00 PM86 °FThunderstorms. Partly cloudy.8 mph62%29.68 "Hg2 mi
7:30 PM91 °FPartly cloudy.8 mph49%29.68 "Hg4 mi
7:00 PM93 °FBroken clouds.8 mph47%29.65 "Hg4 mi
6:30 PM93 °FBroken clouds.6 mph47%29.62 "Hg4 mi
6:00 PM95 °FBroken clouds.6 mph44%29.59 "Hg5 mi
5:30 PM95 °FScattered clouds.7 mph44%29.59 "Hg5 mi
5:00 PM95 °FScattered clouds.8 mph44%29.59 "Hg5 mi
4:30 PM95 °FScattered clouds.9 mph44%29.59 "Hg5 mi
4:00 PM97 °FScattered clouds.8 mph42%29.59 "Hg5 mi
3:30 PM97 °FScattered clouds.8 mph42%29.62 "Hg5 mi
3:00 PM95 °FScattered clouds.8 mph44%29.62 "Hg5 mi
2:30 PM95 °FScattered clouds.7 mph44%29.62 "Hg5 mi
2:00 PM95 °FScattered clouds.8 mph44%29.65 "Hg5 mi
1:30 PM95 °FScattered clouds.9 mph44%29.65 "Hg5 mi
1:00 PM95 °FScattered clouds.8 mph44%29.65 "Hg5 mi
12:30 PM93 °FScattered clouds.9 mph47%29.68 "Hg5 mi
12:00 PM93 °FScattered clouds.5 mph47%29.68 "Hg4 mi
11:30 AM91 °FScattered clouds.9 mph49%29.71 "Hg4 mi
11:00 AM90 °FScattered clouds.14 mph52%29.71 "Hg4 mi
10:30 AM88 °FScattered clouds.13 mph55%29.71 "Hg4 mi
10:00 AM88 °FScattered clouds.12 mph55%29.71 "Hg4 mi
9:30 AM86 °FScattered clouds.14 mph59%29.74 "Hg4 mi
9:00 AM86 °FScattered clouds.12 mph59%29.74 "Hg4 mi
8:30 AM84 °FScattered clouds.12 mph62%29.74 "Hg4 mi
8:00 AM84 °FScattered clouds.10 mph66%29.74 "Hg4 mi
7:30 AM82 °FScattered clouds.8 mph70%29.71 "Hg4 mi
7:00 AM81 °FScattered clouds.6 mph74%29.71 "Hg4 mi
6:30 AM81 °FPassing clouds.7 mph70%29.71 "Hg4 mi
6:00 AM81 °FPassing clouds.7 mph70%29.68 "Hg4 mi
5:30 AM81 °FPassing clouds.7 mph70%29.68 "Hg4 mi
5:00 AM81 °FPassing clouds.8 mph70%29.68 "Hg4 mi
4:30 AM81 °FPassing clouds.8 mph70%29.68 "Hg4 mi
4:00 AM81 °FPartly cloudy.8 mph70%29.68 "Hg4 mi
3:30 AM81 °FPartly cloudy.8 mph70%29.68 "Hg4 mi
3:00 AM81 °FPartly cloudy.9 mph70%29.71 "Hg4 mi
2:30 AM81 °FPartly cloudy.10 mph70%29.71 "Hg4 mi
2:00 AM82 °FPassing clouds.12 mph62%29.71 "Hg4 mi
Weather by CustomWeather, © 2016

See weather overviewHow to use our weather pages